This is the latest recevied weather packets stored in our database for station/object KF0WJA. If no packets are shown the sender has not sent any weather packets the latest 10 day(s).
| Time | Temp. | Humidity | Pressure | Rain* | Wind** | Luminosity | Snow |
|---|---|---|---|---|---|---|---|
| 1788629746 | 36.67° C | 40% | 1017.3 hPa | 0 mm | - | 677 W/m² | - |
| 1788629441 | 36.67° C | 40% | 1017 hPa | 0 mm | - | 694 W/m² | - |
| 1788629139 | 36.11° C | 42% | 1017.1 hPa | 0 mm | - | 669 W/m² | - |
| 1788628835 | 36.67° C | 42% | 1017.3 hPa | 0 mm | - | 680 W/m² | - |
| 1788628531 | 36.67° C | 42% | 1017.3 hPa | 0 mm | - | 671 W/m² | - |
| 1788628227 | 36.67° C | 42% | 1017.2 hPa | 0 mm | - | 684 W/m² | - |
| 1788627924 | 36.67° C | 43% | 1017.4 hPa | 0 mm | - | 671 W/m² | - |
| 1788627624 | 36.11° C | 43% | 1017.4 hPa | 0 mm | - | 666 W/m² | - |
| 1788627319 | 36.11° C | 44% | 1017.5 hPa | 0 mm | - | 667 W/m² | - |
| 1788627014 | 36.11° C | 43% | 1017.3 hPa | 0 mm | - | 676 W/m² | - |
| 1788626708 | 35.56° C | 45% | 1017.3 hPa | 0 mm | - | 658 W/m² | - |
| 1788626402 | 35.56° C | 44% | 1017.2 hPa | 0 mm | - | 653 W/m² | - |
| 1788626099 | 35.56° C | 44% | 1017.4 hPa | 0 mm | - | 671 W/m² | - |
| 1788625794 | 35° C | 45% | 1017.3 hPa | 0 mm | - | 636 W/m² | - |
| 1788625490 | 35° C | 45% | 1017.5 hPa | 0 mm | - | 592 W/m² | - |
| 1788625185 | 35° C | 46% | 1017.3 hPa | 0 mm | - | 591 W/m² | - |
| 1788624884 | 35.56° C | 44% | 1017.4 hPa | 0 mm | - | 615 W/m² | - |
| 1788624582 | 35.56° C | 45% | 1017.7 hPa | 0 mm | - | 609 W/m² | - |
| 1788624276 | 35° C | 44% | 1017.3 hPa | 0 mm | - | 582 W/m² | - |
| 1788623975 | 35° C | 46% | 1017.2 hPa | 0 mm | - | 531 W/m² | - |
| 1788623671 | 35° C | 47% | 1017.4 hPa | 0 mm | - | 546 W/m² | - |
| 1788623369 | 34.44° C | 48% | 1017.5 hPa | 0 mm | - | 551 W/m² | - |
| 1788623065 | 34.44° C | 49% | 1017.2 hPa | 0 mm | - | 531 W/m² | - |
| 1788622760 | 33.89° C | 48% | 1017.2 hPa | 0 mm | - | 514 W/m² | - |
| 1788622457 | 34.44° C | 49% | 1017.4 hPa | 0 mm | - | 505 W/m² | - |
* Rain latest hour (hover to see other rain measurements)
** Current wind speed in m/s (hover to see current wind gust speed)